Hourly Data Report for September 21, 2017

All times are specified in Local Standard Time (LST). Add 1 hour to adjust for Daylight Saving Time where and when it is observed.

MIRAMICHI RCS
NEW BRUNSWICK

47°00'34.000" N
65°27'54.000" W
33.00 m
8100989
71744
ACQ

Download Data

Hourly Data (September 2017)
Hourly Data Report for September 21, 2017
Temp Definition
°C
Dew Point Temp Definition
°C
Rel Hum Definition
%
Wind Dir Definition
10's deg

Wind Spd Definition
km/h
Visibility Definition
km
Stn Press Definition
kPa
Hmdx Definition


Wind Chill Definition


Weather Definition


TIME
00:00 15.3 14.3 94 34 3   101.48     LegendNANA
01:00 14.0 13.4 96 33 3   101.52     LegendNANA
02:00 13.2 12.8 98 29 4   101.51     LegendNANA
03:00 11.6 11.3 98 30 2   101.53     LegendNANA
04:00 12.4 9.6 83 35 4   101.56     LegendNANA
05:00 12.0 8.8 81 1 6   101.60     LegendNANA
06:00 11.6 8.5 81 2 6   101.67     LegendNANA
07:00 12.5 8.5 77 2 7   101.69     LegendNANA
08:00 14.0 8.6 70 2 12   101.75     LegendNANA
09:00 15.7 9.2 65 4 13   101.82     LegendNANA
10:00 17.2 8.6 57 6 15   101.85     LegendNANA
11:00 17.3 9.1 59 8 20   101.86     LegendNANA
12:00 18.1 7.4 50 7 18   101.86     LegendNANA
13:00 18.7 7.5 48 7 17   101.85     LegendNANA
14:00 19.2 8.1 49 9 13   101.83     LegendNANA
15:00 19.0 7.8 48 7 14   101.77     LegendNANA
16:00 18.7 7.2 47 8 13   101.76     LegendNANA
17:00 18.4 8.1 51 8 14   101.79     LegendNANA
18:00 16.1 7.8 58 10 10   101.83     LegendNANA
19:00 12.7 7.7 72 9 7   101.91     LegendNANA
20:00 11.5 8.0 79 7 4   101.92     LegendNANA
21:00 10.5 8.2 86 6 4   101.90     LegendNANA
22:00 8.6 7.1 90 0 1   101.90     LegendNANA
23:00 7.4 6.3 93 29 3   101.91     LegendNANA

Notes on Data Quality.

Legend

  • E = Estimated
  • M = Missing
  • NA = Not Available
  • ‡ = Partner data that is not subject to review by the National Climate Archives
Date modified: